GALAXY 3

导读 | 星芒AI

GALAXY 3 是一颗由美国休斯航天与通信公司制造的通信卫星,于1998年由洛克希德·马丁公司发射。该卫星由加拿大Telesat公司运营,主要用于北美地区的固定卫星服务(FSS),提供电视广播、数据传输和企业通信等服务。GALAXY 3 运行在C波段和Ku波段,覆盖范围广泛,增强了加拿大及美国北部的通信能力。其发射标志着加拿大在卫星通信领域的进一步发展。

基本信息
目录编号:
15308
目录名称:
GALAXY 3
国际标识:
1984-101A
轨道中心:
EARTH
卫星名称:
GALAXY 3
卫星全名:
--
卫星状态:
在轨 (已飞行15013 天)
发射日期:
1984-09-21 UTC
国别 :
美国 (US)
星等 :
--
轨道信息
数据来源 国际轨道数据 AOE轨道数据
星历时间 2025-10-28T02:24:59+0800
1天前
查看轨道信息
2025-10-24T13:00:00+0800
5天前
查看轨道信息
半长轴 42287.654km 42288.077km
偏心率 0.0002096 0.0002214
轨道倾角 14.230° 14.232°
近地点辐角 8.852° 9.603°
升交点赤经 346.829° 346.856°
平近点角 1.568° 161.653°
近地点 35900.655km 35900.579km
远地点 35918.383km 35919.305km
周期 1442.381分钟 1442.403分钟
每日圈数 0.998349 0.998334
详细信息
使用方式:
暂无
2D轨道图
3D轨道图
轨道高度分析图
轨道倾角分析图
轨道综合分析图
查看轨道综合分析图